Location: Béaulencourt
(50.0796°N, 2.8795°E)
Time: 00:50:43
(UTC+00:00)

Daily predictions for brighter satellites

Satellite Brightness Start Highest point End
(mag) Time Altitude Azimuth Time Altitude Azimuth Time Altitude Azimuth
CZ-4C R/B 4.3 03:28:29 22° NNE 03:28:29 22° NNE 03:32:36 10° NE
ATLAS 2AS CENTAUR R/B 3.5 03:37:36 46° ENE 03:37:36 46° ENE 03:43:11 10° ESE
Cosmos 2082 Rocket 3.7 03:44:14 33° ENE 03:44:14 33° ENE 03:48:43 10° ESE
Cosmos 2278 Rocket 3.8 03:48:42 29° ESE 03:49:21 30° ESE 03:54:13 10° NE
Cosmos 1943 Rocket 3.6 03:49:45 33° E 03:49:45 33° E 03:54:20 10° NE
Lacrosse 5 rocket 4.3 04:06:34 12° ENE 04:06:34 12° ENE 04:06:54 10° ENE
Cosmos 2181 Rocket 4.4 03:57:55 10° N 04:04:17 63° ENE 04:10:40 10° SSE
COSMO-SKYMED 1 3.8 04:33:19 10° SE 04:37:07 37° ENE 04:37:44 35° NE
Nadezhda 3 Rocket 4.3 04:36:51 10° N 04:43:06 66° ENE 04:49:23 10° SSE
Lacrosse 4 Rocket 2.8 04:44:43 30° SE 04:45:25 32° ESE 04:48:55 10° NE
FengYun 1-2 T 4.2 04:41:12 10° NNE 04:46:48 84° ESE 04:49:44 29° SSW
Cosmos 1763 Rocket 4.0 04:48:56 33° N 04:50:58 54° ENE 04:55:57 10° SE
Cosmos 1295 Rocket 4.4 04:45:40 10° S 04:51:59 86° E 04:58:18 10° N
Cosmos 1140 Rocket 3.8 04:49:50 25° S 04:52:46 64° ESE 04:57:52 10° NNE
Cosmos 540 Rocket 4.1 04:52:28 26° N 04:55:04 51° ENE 05:00:01 10° SE
Cosmos 1023 Rocket 4.5 04:56:47 33° S 04:59:06 77° ESE 05:04:15 10° NNE
Okean 1-7 4.2 05:00:38 11° N 05:04:21 40° ENE 05:08:17 10° SE
Cosmos 1269 Rocket 4.0 05:02:24 23° SSW 05:05:46 83° ESE 05:11:06 10° NNE
Meteor 2-10 Rocket 3.4 05:04:27 10° SSW 05:09:37 79° WNW 05:15:03 10° N
Gblst 52 Del rocket 4.4 05:11:33 46° SW 05:12:11 49° SSW 05:17:29 10° SE
Cosmos 1707 Rocket 4.2 05:08:43 12° N 05:12:42 55° ENE 05:16:57 10° SSE
Cosmos 2154 Rocket 3.9 05:06:40 10° S 05:12:59 86° W 05:19:17 10° N
CZ-4C R/B 3.8 05:13:24 20° NNW 05:17:13 37° NNE 05:24:24 10° E
Cosmos 1633 Rocket 4.5 05:14:20 10° SSE 05:18:20 38° E 05:22:20 10° NNE
Cosmos 44 3.9 05:18:29 42° WSW 05:18:29 42° WSW 05:23:24 10° S
Cosmos 1743 Rocket 3.4 05:19:19 10° SSW 05:23:44 75° W 05:28:09 10° N
SJ 16-02 3.4 05:23:43 10° SSE 05:27:21 28° E 05:31:01 10° NE
ATLAS 2AS CENTAUR R/B 2.8 05:25:03 35° WNW 05:27:40 53° WSW 05:34:11 10° SSE
Cosmos 2082 Rocket 2.3 05:26:05 38° WNW 05:27:51 52° WSW 05:33:21 10° S
Dummy Sat-02 4.4 05:24:50 10° S 05:28:25 89° E 05:32:03 10° N
Cosmos 1666 Rocket 4.0 05:28:04 10° S 05:32:23 64° E 05:36:46 10° NNE
Cosmos 1943 Rocket 2.3 05:31:18 36° W 05:33:01 48° NW 05:38:22 10° NNE
Cosmos 2278 Rocket 2.3 05:30:36 31° WSW 05:33:08 54° NW 05:38:42 10° NNE
Cosmos 1484 Rocket 3.6 05:31:25 10° NNE 05:34:42 44° E 05:38:01 10° S
Meteor 1-24 Rocket 4.3 05:29:24 10° N 05:35:25 63° ENE 05:41:21 10° SSE
Cosmos 1339 Rocket 4.3 05:31:45 10° NNW 05:37:48 70° W 05:43:52 10° S
CENTAUR R/B 3.0 05:33:21 10° SSW 05:38:45 58° ESE 05:45:36 10° NE
COSMOS 2406 3.1 05:35:07 20° NNW 05:39:12 77° WSW 05:44:56 10° SSE
Cosmos 921 Rocket 4.1 05:40:53 26° NNW 05:40:53 26° NNW 05:43:27 10° N
SL-12 R/B(2) 4.3 05:32:23 10° SW 05:40:30 85° NW 05:50:36 10° NE
Lacrosse 5 rocket 1.9 05:40:04 32° NNW 05:41:12 41° NNE 05:44:47 10° E
SOZ 4.2 05:41:26 58° NNW 05:41:44 65° N 05:45:47 10° E
Cosmos 407 Rocket 3.5 05:39:05 10° SSW 05:44:14 86° ESE 05:49:29 10° NNE
Meteor 2-5 Rocket 4.2 05:39:14 10° N 05:45:05 67° ENE 05:51:00 10° SSE
Helios 1A Rocket 2.2 05:41:50 10° SSE 05:45:12 79° WSW 05:46:55 27° NNW
IGS 5A 3.5 05:41:43 10° NNE 05:45:42 75° ESE 05:49:40 10° S
Cosmos 1953 3.4 05:42:32 10° SSE 05:46:00 42° E 05:49:31 10° NNE
BREEZE-M DEB (TANK) 2.6 05:46:16 49° SSW 05:46:16 49° SSW 05:48:33 10° ESE
Cosmos 1805 Rocket 4.5 05:47:27 29° NW 05:47:27 29° NW 05:50:29 10° N
Cosmos 2084 Rocket 3.6 05:45:37 38° W 05:46:46 49° SW 05:50:51 10° SSE
Cosmos 2297 Rocket 4.5 05:45:18 10° N 05:48:02 13° NNE 05:50:43 10° NE
RUBIN 8/PSLV 4.4 05:43:56 10° NNE 05:48:09 81° WNW 05:52:21 10° SSW
GEOS 3 Rocket 3.6 05:45:29 10° SE 05:50:44 87° SW 05:54:42 19° NW
Timation 2 Rocket 4.2 05:45:40 15° WSW 05:50:55 50° NW 05:57:00 10° NNE
Cosmos 2228 Rocket 2.9 05:48:31 10° NNW 05:52:55 78° W 05:57:16 10° S
BREEZE-M DEB (TANK) 3.4 05:52:39 36° WSW 05:53:30 51° SSW 05:58:29 10° ESE
IRS-1D 3.8 05:49:07 10° N 05:54:12 47° WNW 05:59:16 10° SW
Cosmos 2184 Rocket 4.3 05:48:29 10° SW 05:54:17 41° WNW 06:00:06 10° N
SL-8 Rocket 4.2 05:48:10 10° S 05:54:25 74° E 06:00:41 10° NNE
NOAA 12 4.3 05:51:12 10° N 05:56:08 44° WNW 06:01:05 10° SW
Gbstr 26 Del rocket 4.1 05:52:29 21° W 05:57:42 82° N 06:04:01 10° ENE
USA 307 4.2 05:57:58 20° SW 05:58:27 20° SW 06:01:21 10° S
Cosmos 468 Rocket 3.9 05:54:34 11° NNW 05:59:32 81° WSW 06:04:42 10° SSE
NOSS 2-2 (C) 3.3 06:01:06 10° SSW 06:04:21 57° SE 06:07:18 10° NE
SL-23 DEB 3.3 06:06:14 28° W 06:07:43 72° N 06:11:08 10° ENE
Cosmos 2251 Rocket 3.7 06:04:22 10° SSW 06:09:41 76° ESE 06:15:00 10° NNE
Cosmos 1703 Rocket 3.8 06:06:16 10° N 06:10:35 72° ENE 06:14:54 10° SSE
COSMO-SKYMED 1 3.5 06:09:07 10° SSW 06:12:30 24° W 06:14:03 20° WNW
Cosmos 1867 4.4 06:08:17 11° NNW 06:13:24 47° NE 06:18:39 10° ESE
Cosmos 962 Rocket 4.4 06:08:17 10° SSW 06:14:22 67° WNW 06:20:34 10° N
Thor Agena Rocket 4.0 06:14:28 10° NNE 06:19:35 65° ESE 06:24:43 10° S
Cosmos 1821 Rocket 4.4 06:14:01 10° S 06:20:20 69° E 06:26:37 10° NNE
Cosmos 371 Rocket 3.4 06:16:29 10° SSW 06:21:17 82° ESE 06:26:07 10° NNE
Cosmos 1954 Rocket 4.3 06:16:22 10° SSW 06:21:28 70° ESE 06:26:37 10° NNE
Lacrosse 4 Rocket 1.9 06:20:16 14° WSW 06:23:12 32° NW 06:26:45 10° NNE
Cosmos 1470 Rocket 3.4 06:22:29 10° SSW 06:26:45 67° WNW 06:31:02 10° N
Tiangong 0.5 06:25:47 10° SSW 06:27:51 16° S 06:29:55 10° SE
Landsat 7 3.8 06:23:20 10° NNE 06:28:02 86° ESE 06:32:41 10° SSW
Cosmos 2369 Rocket 2.5 06:27:52 10° SSW 06:33:34 77° ESE 06:39:18 10° NNE
NOSS 2-2 (D) 3.5 06:30:40 10° SSW 06:33:58 55° SE 06:36:56 10° NE
Cosmos 1933 Rocket 3.9 06:30:22 10° S 06:34:46 71° E 06:39:11 10° NNE
Cosmos 1140 Rocket 4.5 06:30:46 10° WSW 06:34:55 24° NW 06:39:07 10° N
Cosmos 540 Rocket 4.4 06:32:12 10° NW 06:36:15 26° W 06:40:24 10° SSW
SMAP 3.0 06:31:48 10° N 06:36:29 75° WNW 06:41:07 10° SSW
COBE Rocket 4.4 06:34:54 10° SSE 06:39:51 65° ENE 06:44:56 10° N
Cosmos 841 Rocket 3.4 06:35:13 10° NNW 06:40:22 73° WSW 06:45:28 10° SSE
Cosmos 304 Rocket 3.7 06:36:04 10° SW 06:40:48 65° WNW 06:45:34 10° NNE
Okean 1-7 4.1 06:37:55 10° NW 06:41:06 22° W 06:44:19 10° SW
YAOGAN 1 4.5 06:37:56 10° NNE 06:41:50 34° E 06:45:42 10° SSE
Cosmos 1190 Rocket 3.9 06:38:02 10° SSW 06:43:12 68° WNW 06:48:24 10° NNE
Cosmos 1461 3.1 06:39:58 10° WSW 06:43:40 42° NW 06:47:24 10° NNE
SL-08 R/B 3.9 06:38:54 10° SSE 06:43:44 65° ENE 06:48:37 10° N
Cosmos 2227 Rocket 4.4 06:41:31 10° N 06:44:36 15° NNE 06:47:40 10° ENE
Meteor 1-15 Rocket 4.4 06:40:48 10° SSW 06:46:31 57° WNW 06:52:22 10° N
Cosmos 2366 rocket 4.2 06:46:22 10° SSW 06:52:23 51° WNW 06:58:31 10° N
Cosmos 2297 3.7 06:48:53 10° SSW 06:54:31 83° WNW 07:00:12 10° NNE
Cosmos 1633 Rocket 4.0 06:52:31 10° SW 06:56:05 25° WNW 06:59:40 10° NNW
Cosmos 1441 Rocket 3.6 06:53:51 10° N 06:57:12 56° ENE 07:00:29 10° SSE
Cosmos 676 Rocket 3.9 06:53:11 10° SSW 06:58:21 80° WNW 07:03:33 10° NNE
Cosmos 2263 Rocket 4.4 06:55:57 10° N 06:58:33 13° NNE 07:01:07 10° NE
SJ-6F 4.3 06:55:23 10° NNE 06:59:22 88° WNW 07:03:18 10° SSW
NOSS 2-2 (E) 2.9 06:56:16 10° SW 06:59:36 78° SE 07:02:37 10° NE
SKYMED 3 4.3 06:57:35 10° SSE 07:01:28 82° WSW 07:05:24 10° NNW
Cosmos 1869 Rocket 3.6 06:57:09 10° S 07:01:35 89° W 07:06:03 10° N
Cosmos 2263 4.3 06:57:05 10° SSW 07:02:52 88° WNW 07:08:40 10° NNE
Cosmos 2218 Rocket 4.3 06:57:26 10° SW 07:03:29 46° WNW 07:09:38 10° N
SJ-12 3.8 07:01:31 10° N 07:05:16 54° WNW 07:08:59 10° SSW
SJ 16-02 1.9 07:01:27 10° SW 07:05:21 35° WNW 07:09:17 10° N
IRS-1C 4.1 07:00:03 10° NNE 07:05:23 77° WNW 07:10:42 10° SSW
MOS 1 Rocket 3.5 07:01:21 10° N 07:05:34 43° WNW 07:09:38 10° SW
Cosmos 1656 Rocket 4.2 07:00:38 10° WSW 07:05:55 39° NW 07:11:10 10° NNE
CZ-4C R/B 3.1 06:59:27 10° NW 07:06:17 89° NE 07:14:52 10° SE
